Torna al catalogo

Zorkiy-2M 7

AttivoMilitareSSO
NORAD 67268·PAYLOAD·🇷🇺 Russia

Lanciato Dec 28, 2025 da Vostochny Cosmodrome

Loading…

Prossimi Passaggi (prossime 24 ore)

TLE

AggiornatoSource: Space-Track

Epoca: Sep 14, 2026, 23:11 UTC

1 67268U 25313W   26257.96597860  .00006057  00000-0  25505-3 0  9993
2 67268  97.3875 331.1849 0015615  53.3885 306.8786 15.23619258 39618

Traccia Zorkiy-2M 7 in tempo reale con AllMySat

Download on the App Store